GW0175 Weather Reports


Display with metric or nautical units.
time (UTC)temp
F
wind
direction
speed
MPH
gust
MPH
rain 1hr
in
rain 24hr
in
rain mn
in
humidity
%
barometer
mb
20260504043946 64 159 2.0 4.0 0.00 0.00 0.00 61 1011.0
20260504043443 65 154 3.0 5.0 0.00 0.00 0.00 60 1011.1
20260504042941 64 175 0.0 4.0 0.00 0.00 0.00 60 1011.2
20260504042437 65 158 2.0 3.0 0.00 0.00 0.00 60 1011.3
20260504041934 65 154 2.0 3.0 0.00 0.00 0.00 60 1011.3
20260504041430 65 166 1.0 3.0 0.00 0.00 0.00 59 1011.4
20260504040926 66 159 3.0 3.0 0.00 0.00 0.00 58 1011.2
20260504040424 66 172 0.0 3.0 0.00 0.00 0.00 58 1011.2
20260504035920 66 160 1.0 4.0 0.00 0.00 0.00 57 1011.4
20260504035417 66 149 3.0 4.0 0.00 0.00 0.00 56 1011.2
20260504034914 66 186 0.0 4.0 0.00 0.00 0.00 56 1011.3
20260504034412 66 180 2.0 6.0 0.00 0.00 0.00 57 1011.4
20260504033908 65 220 3.0 6.0 0.00 0.00 0.00 60 1011.4
20260504033406 65 210 2.0 5.0 0.00 0.00 0.00 60 1011.4
20260504032903 65 237 2.0 3.0 0.00 0.00 0.00 59 1011.2
20260504032400 65 236 2.0 4.0 0.00 0.00 0.00 58 1011.4
20260504031856 65 227 0.0 5.0 0.00 0.00 0.00 59 1011.2
20260504031353 64 251 0.0 2.0 0.00 0.00 0.00 62 1011.4
20260504030850 65 151 0.0 2.0 0.00 0.00 0.00 61 1011.3
20260504030347 66 152 2.0 2.0 0.00 0.00 0.00 58 1011.4
20260504025843 66 187 0.0 2.0 0.00 0.00 0.00 58 1011.1
20260504025340 67 140 2.0 2.0 0.00 0.00 0.00 57 1010.9
20260504024837 67 180 0.0 2.0 0.00 0.00 0.00 56 1010.8
20260504024333 67 166 0.0 2.0 0.00 0.00 0.00 56 1010.8
20260504023830 67 180 0.0 2.0 0.00 0.00 0.00 55 1010.9
20260504023327 67 234 1.0 2.0 0.00 0.00 0.00 53 1011.0
20260504022823 68 229 2.0 3.0 0.00 0.00 0.00 53 1011.0
20260504022320 68 180 0.0 3.0 0.00 0.00 0.00 53 1010.7
20260504021816 68 111 0.0 2.0 0.00 0.00 0.00 52 1010.6
20260504021314 69 270 0.0 3.0 0.00 0.00 0.00 52 1010.6
20260504020811 69 243 0.0 3.0 0.00 0.00 0.00 52 1010.3
20260504020308 69 140 2.0 3.0 0.00 0.00 0.00 51 1010.8
20260504015803 70 167 0.0 4.0 0.00 0.00 0.00 51 1010.6
20260504015300 70 154 2.0 7.0 0.00 0.00 0.00 50 1010.7
20260504014755 70 180 2.0 6.0 0.00 0.00 0.00 49 1010.2
20260504014252 71 205 3.0 6.0 0.00 0.00 0.00 49 1010.4
20260504013750 71 202 3.0 5.0 0.00 0.00 0.00 49 1010.2
20260504013248 71 162 3.0 6.0 0.00 0.00 0.00 48 1010.6
20260504012743 71 181 5.0 7.0 0.00 0.00 0.00 48 1010.4
20260504012242 72 167 3.0 4.0 0.00 0.00 0.00 47 1010.3
20260504011738 72 178 3.0 5.0 0.00 0.00 0.00 47 1010.7
20260504011235 73 227 3.0 6.0 0.00 0.00 0.00 47 1010.4
20260504010731 73 204 2.0 4.0 0.00 0.00 0.00 46 1010.6
20260504010227 73 215 1.0 5.0 0.00 0.00 0.00 46 1010.6
20260504005724 73 230 4.0 4.0 0.00 0.00 0.00 46 1010.6
20260504005221 74 241 3.0 7.0 0.00 0.00 0.00 45 1010.7
20260504004719 74 204 2.0 6.0 0.00 0.00 0.00 45 1010.9
20260504004215 74 171 2.0 5.0 0.00 0.00 0.00 44 1010.6
20260504003712 75 234 5.0 7.0 0.00 0.00 0.00 41 1010.6
20260504003209 76 238 4.0 4.0 0.00 0.00 0.00 39 1010.7
20260504002706 76 253 3.0 5.0 0.00 0.00 0.00 39 1010.6
20260504002203 76 258 5.0 7.0 0.00 0.00 0.00 38 1010.7
20260504001701 76 241 5.0 8.0 0.00 0.00 0.00 37 1010.8
20260504001157 76 227 3.0 8.0 0.00 0.00 0.00 37 1010.9
20260504000654 76 237 5.0 7.0 0.00 0.00 0.00 36 1010.9
20260504000151 76 249 6.0 8.0 0.00 0.00 0.00 37 1010.9
20260503235649 77 218 3.0 7.0 0.00 0.00 0.00 36 1010.8
20260503235145 77 258 5.0 7.0 0.00 0.00 0.00 36 1011.0
20260503234644 77 270 0.0 5.0 0.00 0.00 0.00 35 1011.0
20260503234141 77 203 2.0 7.0 0.00 0.00 0.00 38 1011.2
20260503233638 77 208 0.0 5.0 0.00 0.00 0.00 39 1011.3
20260503233133 77 164 5.0 11.0 0.00 0.00 0.00 40 1011.2
20260503232631 76 159 9.0 11.0 0.00 0.00 0.00 41 1011.1
20260503232128 76 250 4.0 11.0 0.00 0.00 0.00 41 1011.1
20260503231626 76 181 5.0 13.0 0.00 0.00 0.00 42 1011.3
20260503231122 76 192 4.0 12.0 0.00 0.00 0.00 42 1011.5
20260503230619 76 152 2.0 12.0 0.00 0.00 0.00 42 1011.4
20260503230116 76 153 4.0 9.0 0.00 0.00 0.00 42 1011.3
20260503225614 77 225 3.0 8.0 0.00 0.00 0.00 41 1011.3
20260503225113 76 161 3.0 9.0 0.00 0.00 0.00 42 1011.4
20260503224611 76 151 6.0 13.0 0.00 0.00 0.00 42 1011.6
20260503224109 75 195 5.0 14.0 0.00 0.00 0.00 43 1011.6
20260503223607 75 159 7.0 16.0 0.00 0.00 0.00 43 1011.6
20260503223102 75 167 5.0 17.0 0.00 0.00 0.00 43 1011.4
20260503222600 75 175 5.0 9.0 0.00 0.00 0.00 43 1011.5
20260503222058 76 160 10.0 10.0 0.00 0.00 0.00 42 1011.8
20260503221556 76 161 5.0 14.0 0.00 0.00 0.00 42 1011.5
20260503221053 76 179 7.0 14.0 0.00 0.00 0.00 42 1011.6
20260503220549 75 173 0.0 11.0 0.00 0.00 0.00 42 1011.9
20260503220046 76 202 5.0 11.0 0.00 0.00 0.00 41 1012.2
20260503215543 76 155 8.0 16.0 0.00 0.00 0.00 41 1012.2
20260503215040 78 165 4.0 9.0 0.00 0.00 0.00 40 1012.3
20260503214539 76 155 7.0 14.0 0.00 0.00 0.00 40 1012.5
20260503214035 78 237 6.0 13.0 0.00 0.00 0.00 40 1012.5
20260503213533 77 131 4.0 15.0 0.00 0.00 0.00 40 1012.9
20260503213029 76 170 5.0 11.0 0.00 0.00 0.00 42 1012.7
20260503212527 75 172 9.0 15.0 0.00 0.00 0.00 42 1012.9
20260503212024 75 173 6.0 16.0 0.00 0.00 0.00 42 1012.9
20260503211521 75 184 4.0 12.0 0.00 0.00 0.00 41 1013.2
20260503211017 75 152 9.0 9.0 0.00 0.00 0.00 42 1013.5
20260503210514 75 152 7.0 11.0 0.00 0.00 0.00 42 1013.3
20260503210009 74 169 2.0 7.0 0.00 0.00 0.00 43 1013.8
20260503205506 74 166 10.0 10.0 0.00 0.00 0.00 43 1013.8
20260503205003 75 163 9.0 11.0 0.00 0.00 0.00 43 1014.1
20260503204500 75 128 5.0 11.0 0.00 0.00 0.00 42 1013.8
20260503203956 75 165 9.0 16.0 0.00 0.00 0.00 41 1014.2
20260503203454 75 194 5.0 9.0 0.00 0.00 0.00 43 1014.3
20260503202950 75 164 7.0 13.0 0.00 0.00 0.00 42 1014.3
20260503202449 74 160 4.0 8.0 0.00 0.00 0.00 42 1014.5
20260503201947 74 155 4.0 14.0 0.00 0.00 0.00 43 1014.5
20260503201444 75 169 6.0 10.0 0.00 0.00 0.00 42 1014.7
20260503200941 74 196 7.0 11.0 0.00 0.00 0.00 43 1014.8
20260503200438 74 174 7.0 11.0 0.00 0.00 0.00 44 1014.7
20260503195934 73 220 7.0 11.0 0.00 0.00 0.00 43 1014.7
20260503195432 73 189 5.0 13.0 0.00 0.00 0.00 43 1014.8
20260503194928 72 134 7.0 10.0 0.00 0.00 0.00 44 1015.1
20260503194425 73 157 8.0 12.0 0.00 0.00 0.00 44 1015.1
20260503193920 73 162 11.0 11.0 0.00 0.00 0.00 44 1015.0
20260503193416 72 185 8.0 12.0 0.00 0.00 0.00 44 1015.3
20260503192912 72 180 10.0 12.0 0.00 0.00 0.00 45 1015.3
20260503192408 73 176 13.0 13.0 0.00 0.00 0.00 45 1015.6
20260503191904 72 231 5.0 12.0 0.00 0.00 0.00 46 1015.4
20260503191402 71 153 8.0 13.0 0.00 0.00 0.00 46 1015.6
20260503190858 72 182 3.0 10.0 0.00 0.00 0.00 46 1015.7
20260503190355 71 180 4.0 15.0 0.00 0.00 0.00 46 1015.7
20260503185852 71 156 7.0 14.0 0.00 0.00 0.00 45 1015.9
20260503185348 71 181 8.0 11.0 0.00 0.00 0.00 46 1016.0
20260503184848 72 168 10.0 14.0 0.00 0.00 0.00 46 1016.2
20260503184344 71 184 7.0 15.0 0.00 0.00 0.00 46 1016.3
20260503183840 71 227 6.0 13.0 0.00 0.00 0.00 46 1016.3
20260503183338 71 165 4.0 11.0 0.00 0.00 0.00 45 1016.6
20260503182835 71 180 4.0 13.0 0.00 0.00 0.00 45 1016.6
20260503182334 71 178 7.0 11.0 0.00 0.00 0.00 46 1016.8
20260503181831 70 143 7.0 13.0 0.00 0.00 0.00 46 1017.0
20260503181328 70 118 3.0 12.0 0.00 0.00 0.00 45 1016.9
20260503180824 71 168 4.0 14.0 0.00 0.00 0.00 46 1017.0
20260503180322 71 270 3.0 10.0 0.00 0.00 0.00 46 1017.0
20260503175818 69 212 3.0 11.0 0.00 0.00 0.00 46 1017.1
20260503175317 69 173 5.0 11.0 0.00 0.00 0.00 46 1017.1
20260503174812 70 178 4.0 13.0 0.00 0.00 0.00 47 1017.3
20260503174311 69 180 10.0 13.0 0.00 0.00 0.00 47 1017.6
20260503173806 69 200 6.0 11.0 0.00 0.00 0.00 48 1017.6
20260503173302 68 165 6.0 13.0 0.00 0.00 0.00 47 1017.6
20260503172759 69 195 5.0 13.0 0.00 0.00 0.00 48 1017.7
20260503172256 70 154 10.0 11.0 0.00 0.00 0.00 47 1018.0
20260503171752 69 175 6.0 11.0 0.00 0.00 0.00 46 1018.2
20260503171249 69 175 3.0 11.0 0.00 0.00 0.00 47 1018.3
20260503170746 68 218 4.0 11.0 0.00 0.00 0.00 48 1018.2
20260503170243 69 198 9.0 11.0 0.00 0.00 0.00 49 1018.5
20260503160205 64 192 6.0 11.0 0.00 0.00 0.00 60 1018.8
20260503150635 60 156 0.0 4.0 0.00 0.00 0.00 71 1019.5
20260503150131 59 114 2.0 4.0 0.00 0.00 0.00 73 1019.4
20260503131025 49 180 0.0 2.0 0.00 0.00 0.00 92 1019.6
20260503130522 48 168 0.0 3.0 0.00 0.00 0.00 92 1019.5
20260503110407 48 180 0.0 0.0 0.00 0.00 0.00 92 1018.8
20260503090258 49 3 0.0 3.0 0.00 0.00 0.00 91 1019.3
20260503081225 51 172 0.0 0.0 0.00 0.00 0.00 90 1019.4
20260503080721 51 157 0.0 2.0 0.00 0.00 0.00 90 1019.3
20260503080218 51 120 0.0 0.0 0.00 0.00 0.00 90 1019.4
20260503072655 52 151 0.0 2.0 0.00 0.00 0.00 89 1019.6
20260503072151 52 254 0.0 1.0 0.00 0.00 0.00 89 1019.8
20260503071648 52 270 0.0 2.0 0.00 0.00 0.00 89 1019.6
20260503071145 52 286 0.0 1.0 0.00 0.00 0.00 89 1019.5
20260503070642 51 90 0.0 1.0 0.00 0.00 0.00 89 1019.6
20260503070140 51 114 0.0 1.0 0.00 0.00 0.00 89 1019.4
20260503060104 53 14 0.0 0.0 0.00 0.00 0.00 84 1019.5
20260503055055 54 0 0.0 2.0 0.00 0.00 0.00 82 1019.4
20260503054551 54 23 0.0 1.0 0.00 0.00 0.00 81 1019.7
20260503054049 55 20 0.0 2.0 0.00 0.00 0.00 80 1019.4
20260503053547 55 74 0.0 1.0 0.00 0.00 0.00 79 1019.3
20260503053044 55 294 0.0 1.0 0.00 0.00 0.00 80 1019.3
20260503052541 55 254 0.0 0.0 0.00 0.00 0.00 79 1019.4
20260503052037 56 254 0.0 0.0 0.00 0.00 0.00 79 1019.3
20260503051533 56 254 0.0 1.0 0.00 0.00 0.00 80 1019.3
20260503051031 56 270 0.0 0.0 0.00 0.00 0.00 80 1019.4
20260503050526 56 254 0.0 0.0 0.00 0.00 0.00 80 1019.4
20260503050024 56 254 0.0 0.0 0.00 0.00 0.00 79 1019.5
20260503045521 56 254 0.0 0.0 0.00 0.00 0.00 79 1019.4
20260503045018 56 254 0.0 1.0 0.00 0.00 0.00 79 1019.4
20260503044515 56 0 0.0 0.0 0.00 0.00 0.00 78 1019.5